Location: Gälforsberget
(66.6500°N, 22.4167°E)
Time: 08:06:15
(UTC+00:00)

Cosmos 2239 Rocket - Pass Details

Date: 11 April 2026
Orbit: 954 x 989 km, 82.9° (Epoch: 13 May)

Event Time Altitude Azimuth Distance (km) Brightness Sun altitude
Exits shadow 20:29:25 - 187° (S) 2,926 6.5 -11.6°
Reaches altitude 10° 20:30:02 10° 186° (S) 2,698 6.3 -11.6°
Maximum altitude 20:36:12 77° 103° (ESE) 1,000 4.5 -11.9°
Drops below altitude 10° 20:42:27 10° 18° (NNE) 2,736 7.5 -12.2°
Sets 20:44:59 0° 17° (NNE) 3,692 8.3 -12.3°
